| time (UTC) | temp F | wind direction | speed MPH | gust MPH | rain 1hr in | rain 24hr in | rain mn in | humidity % | barometer mb |
| 20260903044501 | 70 | 39 | 1.0 | 2.0 | 0.01 | 0.54 | 0.01 | 93 | 1016.1 |
| 20260903043205 | 70 | 76 | 0.0 | 2.0 | 0.00 | 0.53 | 0.00 | 92 | 1016.4 |
| 20260903041600 | 71 | 5 | 0.0 | 3.0 | 0.00 | 0.53 | 0.00 | 92 | 1017.0 |
| 20260903040053 | 71 | 46 | 1.0 | 4.0 | 0.00 | 0.53 | 0.00 | 92 | 1016.5 |
| 20260903034553 | 72 | 11 | 2.0 | 9.0 | 0.00 | 0.53 | 0.53 | 91 | 1016.7 |
| 20260903033054 | 73 | 72 | 4.0 | 10.0 | 0.00 | 0.53 | 0.53 | 91 | 1017.0 |
| 20260903031557 | 73 | 82 | 3.0 | 6.0 | 0.00 | 0.53 | 0.53 | 92 | 1017.1 |
| 20260903030053 | 73 | 32 | 2.0 | 5.0 | 0.00 | 0.53 | 0.53 | 92 | 1017.6 |
| 20260903024551 | 73 | 237 | 0.0 | 1.0 | 0.00 | 0.53 | 0.53 | 92 | 1016.7 |
| 20260903023050 | 73 | 232 | 1.0 | 3.0 | 0.00 | 0.53 | 0.53 | 91 | 1016.1 |
| 20260903021550 | 74 | 238 | 1.0 | 4.0 | 0.00 | 0.53 | 0.53 | 92 | 1016.0 |
| 20260903020050 | 74 | 238 | 3.0 | 5.0 | 0.00 | 0.53 | 0.53 | 93 | 1015.7 |
| 20260903014552 | 73 | 261 | 1.0 | 3.0 | 0.00 | 0.53 | 0.53 | 93 | 1016.0 |
| 20260903013102 | 74 | 254 | 1.0 | 2.0 | 0.00 | 0.53 | 0.53 | 93 | 1015.8 |
| 20260903011548 | 75 | 250 | 0.0 | 2.0 | 0.00 | 0.53 | 0.53 | 91 | 1016.1 |
| 20260903010050 | 75 | 180 | 1.0 | 2.0 | 0.00 | 0.53 | 0.53 | 91 | 1015.9 |
| 20260903004547 | 75 | 166 | 1.0 | 3.0 | 0.00 | 0.53 | 0.53 | 90 | 1015.7 |
| 20260903003049 | 76 | 267 | 1.0 | 5.0 | 0.00 | 0.53 | 0.53 | 89 | 1015.7 |
| 20260903001546 | 76 | 211 | 1.0 | 5.0 | 0.00 | 0.53 | 0.53 | 89 | 1015.8 |
| 20260903000047 | 77 | 182 | 2.0 | 5.0 | 0.00 | 0.53 | 0.53 | 89 | 1016.1 |
| 20260902234605 | 77 | 185 | 2.0 | 4.0 | 0.00 | 0.53 | 0.53 | 89 | 1016.3 |
| 20260902234521 | 77 | 175 | 2.0 | 4.0 | 0.00 | 0.53 | 0.53 | 89 | 1016.3 |
| 20260902233045 | 78 | 263 | 0.0 | 2.0 | 0.00 | 0.53 | 0.53 | 87 | 1016.3 |
| 20260902231544 | 79 | 223 | 2.0 | 3.0 | 0.00 | 0.53 | 0.53 | 85 | 1015.7 |
| 20260902230043 | 80 | 208 | 2.0 | 4.0 | 0.00 | 0.53 | 0.53 | 84 | 1015.7 |
| 20260902224604 | 81 | 200 | 2.0 | 4.0 | 0.00 | 0.53 | 0.53 | 82 | 1015.8 |
| 20260902223040 | 81 | 178 | 2.0 | 5.0 | 0.00 | 0.53 | 0.53 | 81 | 1016.0 |
| 20260902221537 | 82 | 180 | 2.0 | 8.0 | 0.00 | 0.53 | 0.53 | 80 | 1016.3 |
| 20260902220005 | 82 | 207 | 1.0 | 8.0 | 0.00 | 0.53 | 0.53 | 80 | 1016.5 |
| 20260902214503 | 83 | 128 | 3.0 | 8.0 | 0.00 | 0.53 | 0.53 | 78 | 1016.3 |
| 20260902213118 | 83 | 175 | 3.0 | 8.0 | 0.00 | 0.53 | 0.53 | 80 | 1016.6 |
| 20260902211604 | 83 | 75 | 3.0 | 8.0 | 0.00 | 0.53 | 0.53 | 78 | 1016.7 |
| 20260902211500 | 83 | 153 | 4.0 | 8.0 | 0.00 | 0.53 | 0.53 | 78 | 1016.7 |
| 20260902210059 | 84 | 130 | 2.0 | 6.0 | 0.00 | 0.53 | 0.53 | 78 | 1016.6 |
| 20260902204555 | 83 | 159 | 1.0 | 5.0 | 0.00 | 0.53 | 0.53 | 77 | 1016.7 |
| 20260902203055 | 83 | 143 | 2.0 | 5.0 | 0.00 | 0.53 | 0.53 | 77 | 1016.8 |
| 20260902201603 | 82 | 190 | 1.0 | 6.0 | 0.00 | 0.53 | 0.53 | 78 | 1016.7 |
| 20260902200119 | 82 | 196 | 3.0 | 8.0 | 0.00 | 0.53 | 0.53 | 78 | 1016.9 |
| 20260902194548 | 82 | 208 | 2.0 | 7.0 | 0.00 | 0.53 | 0.53 | 79 | 1016.9 |
| 20260902193046 | 82 | 216 | 3.0 | 8.0 | 0.00 | 0.53 | 0.53 | 80 | 1017.1 |
| 20260902191542 | 81 | 236 | 3.0 | 7.0 | 0.00 | 0.53 | 0.53 | 81 | 1017.2 |
| 20260902190054 | 80 | 214 | 3.0 | 7.0 | 0.00 | 0.53 | 0.53 | 82 | 1017.3 |
| 20260902184536 | 79 | 214 | 3.0 | 8.0 | 0.00 | 0.53 | 0.53 | 81 | 1017.3 |
| 20260902183038 | 78 | 225 | 5.0 | 9.0 | 0.00 | 0.53 | 0.53 | 81 | 1017.4 |
| 20260902181534 | 77 | 250 | 3.0 | 10.0 | 0.00 | 0.53 | 0.53 | 86 | 1017.8 |
| 20260902180030 | 76 | 226 | 5.0 | 10.0 | 0.00 | 0.53 | 0.53 | 87 | 1018.2 |
| 20260902174525 | 75 | 252 | 5.0 | 9.0 | 0.00 | 0.53 | 0.53 | 87 | 1018.6 |
| 20260902173023 | 73 | 188 | 0.0 | 7.0 | 0.00 | 0.53 | 0.53 | 91 | 1018.6 |
| 20260902171522 | 71 | 178 | 2.0 | 5.0 | 0.00 | 0.53 | 0.53 | 94 | 1018.7 |
| 20260902170021 | 70 | 229 | 3.0 | 7.0 | 0.00 | 0.53 | 0.53 | 96 | 1019.1 |
| 20260902164517 | 69 | 225 | 2.0 | 5.0 | 0.00 | 0.53 | 0.53 | 96 | 1019.3 |
| 20260902163015 | 68 | 269 | 1.0 | 2.0 | 0.01 | 0.53 | 0.53 | 96 | 1019.6 |
| 20260902161514 | 68 | 212 | 1.0 | 3.0 | 0.02 | 0.53 | 0.53 | 96 | 1019.3 |
| 20260902160016 | 68 | 310 | 0.0 | 3.0 | 0.04 | 0.53 | 0.53 | 96 | 1020.0 |
| 20260902154516 | 68 | 325 | 1.0 | 2.0 | 0.06 | 0.53 | 0.53 | 95 | 1018.7 |
| 20260902153012 | 68 | 50 | 0.0 | 4.0 | 0.09 | 0.52 | 0.52 | 95 | 1019.1 |
| 20260902151512 | 68 | 202 | 0.0 | 2.0 | 0.20 | 0.51 | 0.51 | 94 | 1020.0 |
| 20260902150014 | 68 | 175 | 1.0 | 4.0 | 0.49 | 0.49 | 0.49 | 94 | 1019.7 |
| 20260902144511 | 69 | 195 | 3.0 | 12.0 | 0.47 | 0.47 | 0.47 | 92 | 1019.5 |
| 20260902143014 | 70 | 269 | 5.0 | 15.0 | 0.43 | 0.43 | 0.43 | 91 | 1019.6 |
| 20260902141511 | 72 | 256 | 4.0 | 14.0 | 0.27 | 0.27 | 0.27 | 92 | 1019.7 |
| 20260902140008 | 73 | 227 | 0.0 | 0.0 | 0.00 | 0.00 | 0.00 | 92 | 1018.5 |
| 20260902134505 | 73 | 227 | 0.0 | 2.0 | 0.00 | 0.00 | 0.00 | 92 | 1018.2 |
| 20260902133005 | 73 | 210 | 1.0 | 3.0 | 0.00 | 0.00 | 0.00 | 92 | 1017.9 |
| 20260902131504 | 73 | 211 | 1.0 | 3.0 | 0.00 | 0.00 | 0.00 | 92 | 1017.8 |
| 20260902130103 | 73 | 210 | 1.0 | 3.0 | 0.00 | 0.00 | 0.00 | 93 | 1018.1 |
| 20260902124502 | 72 | 186 | 1.0 | 3.0 | 0.00 | 0.00 | 0.00 | 94 | 1018.2 |
| 20260902123002 | 72 | 205 | 1.0 | 3.0 | 0.00 | 0.00 | 0.00 | 96 | 1018.2 |
| 20260902121604 | 72 | 265 | 1.0 | 3.0 | 0.00 | 0.00 | 0.00 | 97 | 1018.0 |
| 20260902120057 | 71 | 238 | 1.0 | 3.0 | 0.00 | 0.00 | 0.00 | 97 | 1017.6 |
| 20260902114554 | 69 | 184 | 0.0 | 0.0 | 0.00 | 0.00 | 0.00 | 97 | 1017.8 |
| 20260902113107 | 68 | 184 | 1.0 | 3.0 | 0.00 | 0.00 | 0.00 | 97 | 1017.6 |
| 20260902111556 | 66 | 317 | 0.0 | 0.0 | 0.00 | 0.00 | 0.00 | 96 | 1017.5 |
| 20260902110047 | 66 | 317 | 0.0 | 1.0 | 0.00 | 0.00 | 0.00 | 95 | 1017.4 |
| 20260902104545 | 67 | 317 | 0.0 | 2.0 | 0.00 | 0.00 | 0.00 | 96 | 1017.2 |
| 20260902103048 | 67 | 317 | 1.0 | 2.0 | 0.00 | 0.00 | 0.00 | 96 | 1017.2 |
| 20260902101544 | 67 | 317 | 0.0 | 0.0 | 0.00 | 0.00 | 0.00 | 95 | 1017.3 |
| 20260902100042 | 67 | 317 | 0.0 | 0.0 | 0.00 | 0.00 | 0.00 | 96 | 1017.4 |
| 20260902094548 | 67 | 317 | 0.0 | 0.0 | 0.00 | 0.02 | 0.00 | 96 | 1017.6 |
| 20260902093040 | 67 | 317 | 0.0 | 1.0 | 0.00 | 0.02 | 0.00 | 95 | 1017.6 |
| 20260902091545 | 67 | 317 | 0.0 | 1.0 | 0.00 | 0.02 | 0.00 | 95 | 1017.6 |
| 20260902090037 | 68 | 317 | 0.0 | 2.0 | 0.00 | 0.02 | 0.00 | 95 | 1017.6 |
| 20260902084535 | 68 | 317 | 0.0 | 1.0 | 0.00 | 0.02 | 0.00 | 95 | 1017.4 |
| 20260902083034 | 69 | 317 | 0.0 | 1.0 | 0.00 | 0.02 | 0.00 | 95 | 1017.4 |
| 20260902081533 | 69 | 317 | 0.0 | 0.0 | 0.00 | 0.02 | 0.00 | 94 | 1017.4 |
| 20260902080034 | 69 | 317 | 0.0 | 0.0 | 0.00 | 0.02 | 0.00 | 95 | 1017.1 |
| 20260902074530 | 70 | 317 | 0.0 | 0.0 | 0.00 | 0.02 | 0.00 | 94 | 1017.1 |
| 20260902073028 | 70 | 317 | 0.0 | 0.0 | 0.00 | 0.02 | 0.00 | 94 | 1017.2 |
| 20260902071529 | 71 | 317 | 0.0 | 0.0 | 0.00 | 0.02 | 0.00 | 94 | 1017.4 |
| 20260902070026 | 71 | 317 | 0.0 | 2.0 | 0.00 | 0.02 | 0.00 | 94 | 1017.6 |
| 20260902064523 | 71 | 55 | 0.0 | 0.0 | 0.00 | 0.02 | 0.00 | 94 | 1017.7 |
| 20260902063022 | 71 | 55 | 0.0 | 0.0 | 0.00 | 0.02 | 0.00 | 94 | 1017.9 |
| 20260902061527 | 71 | 55 | 0.0 | 2.0 | 0.00 | 0.02 | 0.00 | 93 | 1017.9 |
| 20260902060020 | 71 | 107 | 0.0 | 2.0 | 0.00 | 0.02 | 0.00 | 93 | 1017.7 |
| 20260902054518 | 72 | 61 | 0.0 | 0.0 | 0.00 | 0.02 | 0.00 | 92 | 1017.8 |
| 20260902053027 | 72 | 31 | 0.0 | 2.0 | 0.00 | 0.02 | 0.00 | 92 | 1017.8 |
| 20260902051514 | 72 | 31 | 0.0 | 1.0 | 0.00 | 0.02 | 0.00 | 91 | 1017.8 |
| 20260902050013 | 72 | 31 | 0.0 | 0.0 | 0.00 | 0.02 | 0.00 | 91 | 1017.8 |